TimeEST,TemperatureF,Dew PointF,Humidity,Sea Level PressureIn,VisibilityMPH,Wind Direction,Wind SpeedMPH,Gust SpeedMPH,PrecipitationIn,Events,Conditions,WindDirDegrees,DateUTC
12:53 AM,62.1,55.0,78,30.19,10.0,NNE,16.1,-,N/A,,Overcast,30,2014-01-25 05:53:00
1:53 AM,62.1,55.9,80,30.18,10.0,NE,16.1,-,N/A,,Overcast,40,2014-01-25 06:53:00
2:53 AM,61.0,55.0,81,30.17,10.0,NE,9.2,-,N/A,,Clear,40,2014-01-25 07:53:00
3:53 AM,61.0,55.9,83,30.17,10.0,NNE,10.4,-,N/A,,Clear,30,2014-01-25 08:53:00
4:53 AM,61.0,55.9,83,30.16,10.0,NE,9.2,-,N/A,,Clear,40,2014-01-25 09:53:00
5:55 AM,60.8,57.2,88,30.15,10.0,NE,8.1,-,N/A,,Clear,50,2014-01-25 10:55:00
6:53 AM,61.0,57.0,87,30.16,10.0,NE,5.8,-,N/A,,Scattered Clouds,40,2014-01-25 11:53:00
7:53 AM,62.1,57.9,86,30.16,10.0,NNE,5.8,-,N/A,,Scattered Clouds,20,2014-01-25 12:53:00
8:53 AM,64.9,59.0,81,30.17,10.0,NE,8.1,-,N/A,,Scattered Clouds,50,2014-01-25 13:53:00
9:53 AM,64.8,57.2,76,30.18,10.0,NE,6.9,-,N/A,,Scattered Clouds,40,2014-01-25 14:53:00
10:53 AM,66.6,57.2,72,30.18,10.0,NNE,6.9,-,N/A,,Mostly Cloudy,20,2014-01-25 15:53:00
11:53 AM,68.0,59.0,73,30.15,10.0,NNE,9.2,-,N/A,,Mostly Cloudy,20,2014-01-25 16:53:00
12:53 PM,68.0,59.0,73,30.11,10.0,NNE,6.9,-,N/A,,Mostly Cloudy,20,2014-01-25 17:53:00
1:53 PM,75.0,63.0,66,30.08,10.0,NNE,4.6,-,N/A,,Mostly Cloudy,30,2014-01-25 18:53:00
2:53 PM,75.0,63.0,66,30.07,10.0,North,9.2,-,N/A,,Mostly Cloudy,350,2014-01-25 19:53:00
3:53 PM,69.1,63.0,81,30.07,10.0,North,11.5,-,N/A,,Mostly Cloudy,350,2014-01-25 20:53:00
4:53 PM,69.1,62.1,78,30.08,10.0,NNW,11.5,-,N/A,,Mostly Cloudy,340,2014-01-25 21:53:00
5:53 PM,66.9,62.1,84,30.09,10.0,North,12.7,-,N/A,,Scattered Clouds,350,2014-01-25 22:53:00
6:53 PM,66.0,62.1,87,30.09,10.0,North,9.2,-,N/A,,Scattered Clouds,350,2014-01-25 23:53:00
7:53 PM,64.9,62.1,90,30.09,10.0,North,4.6,-,N/A,,Scattered Clouds,360,2014-01-26 00:53:00
8:53 PM,64.9,62.1,90,30.09,10.0,NNE,4.6,-,N/A,,Scattered Clouds,20,2014-01-26 01:53:00
9:53 PM,64.0,62.1,93,30.10,10.0,Calm,Calm,-,N/A,,Scattered Clouds,0,2014-01-26 02:53:00
10:53 PM,64.0,62.1,93,30.10,10.0,Calm,Calm,-,N/A,,Partly Cloudy,0,2014-01-26 03:53:00
11:53 PM,64.9,62.1,90,30.10,10.0,North,6.9,-,N/A,,Clear,350,2014-01-26 04:53:00